Погода в Днепропетровске

Погода в Днепропетровске : погода сейчас, прогноз погоды и архив. Всё, что Вы хотите узнать о погоде в Днепропетровске!

Хотите узнать прогноз погоды в Днепропетровске? Тогда Вам сюда: Погода в Днепропетровске

Поиск расширенной информации на нашем сайте:

Другие новости

Новости СМИ2

Главная страница сайта

Новости сайта

02.10.2013

Напоминаем, что на нашем новом сайте вы можете получить высокодетализированные прогнозы погоды по пунктам России, СНГ и мира (включающие важные для авиации метеовеличины, такие как направление и скорость ветра, видимость, явления погоды, количество и форма облачности, нижняя и верхняя граница облачности), а также ознакомиться с разнообразными материалами по авиационной метеорологии и подборкой полезных ссылок на эту тему.

Сайт Метеоцентр.Азия посвящён разработке технологий оптимизации авиаметеорологического обслуживания, включая проектирование и перспективное создание нескольких автоматизированных авиаметеорологических систем:
- система выпуска высокодетальных прогностических карт явлений погоды для нижнего воздушного пространства по России и ближнему зарубежью;
- система верификации прогнозов TAF (выпускаемых синоптиками официальных АМСГ РФ и ближнего зарубежья) и AUTOTAF (выпускаемых сайтом Метеоцентр.Азия) - выявление ошибок, онлайн-сопоставление с фактической погодой METAR, автоматическое внесение коррективов в прогнозы при резком отклонении фактической погоды от прогноза, подсчёт оправдываемости прогнозов по элементам и в целом;
- система обработки, анализа и отображения авиаметеорологической информации для применения провайдерами метеорологической информации.

Рекомендуем: Подольск и ремонт ноутбуков Щербинка. Ремонт ноутбуков в Подольске лучшие цены в Москве.

Погода в Днепропетровске - сегодня

Время (UTC), дата Ветер
(°,м/с) 
Видим.   Явления Облачность Т
(°С)
Тd
(°С)
f(%) Тe
(°С)
Pmin
(гПа)
dP
(гПа)
Po
(мм)
O2
(г/м3)
Тmin Tmax R s Состояние
почвы
15 26.05.17 220 (ЮЗ) 10 км    5/5 1200 м 
[Cu med, cong]
+23.3 +7.2 35 +23  1012  -1.5  746  276           
18 26.05.17 тихо ()   10 км    8/8 1200 м 
[Sc]
+17.6 +8.3 54 +18  1012.3  746  281    +24.1       
21 26.05.17 280 (З) 10 км    3/3 1500 м 
[Sc]
+14.9 +9.7 71 +17  1012.3  -0.1  746  283           
00 27.05.17 290 (З) 10 км    5/5 1500 м 
[Sc]
+13.3 +8.1 71 +13  1011.9  -0.5  746  285           
03 27.05.17 290 (З) 10 км    6/6 1500 м 
[Sc]
+13.6 +8.4 71 +14  1011.8  -0.1  746  285          затоплена
водой 
06 27.05.17 020 (С) 10 км    8/0 средняя 
[Ac trans]
+19.2 +12.4 65 +25  1011.9  0.4  746  279  +13         
12 27.05.17 360 (С) 10 км  гроза без осадков  9/9 1000 м кучево-дожд. 
[Cb calv]
+21.3 +11.4 53 +24  1012  746  277           
15 27.05.17 020 (С) 10 км  {гроза}  9/3 1000 м кучево-дожд., средняя 
[Cb calv|Ac trans]
+19.8 +11.9 60 +25  1012.1  0.1  746  278           
18 27.05.17 020 (С) 10 км  {гроза}  8/3 1000 м кучево-дожд., средняя 
[Cb calv|Ac trans]
+17 +10.2 64 +18  1013.6  1.3  747  282           
21 27.05.17 010 (С) 10 км    9/0 средняя 
[Ac trans]
+15.6 +9.9 69 +17  1015.1  1.4  748  283           
00 28.05.17 020 (С) 10 км    9/0 средняя 
[Ac trans]
+14.8 +10.2 74 +16  1016.1  0.9  749  284           
03 28.05.17 020 (С) 10 км    3/0 средняя 
[Ac trans]
+12.4 +9.2 81 +12  1017  0.7  750  287           
06 28.05.17 040 (СВ) 10 км    ясно 
+19 +11.1 60 +22  1017.8  1.2  751  281  +12.4  +3.4       
09 28.05.17 010 (С) 10 км    4/4 1500 м 
[Cu med, cong]
+22.9 +9.4 42 +23  1017.6  751  277           
12 28.05.17 360 (С) 10 км    8/5 1500 м верхняя 
[Cu med, cong|Ci fib]
+25.1 +6.5 30 +25  1017.4  -0.1  750  276           
15 28.05.17 360 (С) 10 км    8/0 верхняя 
[Ci fib]
+24.2 +6.4 32 +24  1016.9  -0.5  750  277           
18 28.05.17 320 (СЗ) 10 км    8/4 1500 м верхняя 
[Sc|Ci fib]
+18.8 +7.9 49 +19  1018.2  751  282    +25.4       
21 28.05.17 010 (С) 10 км    8/0 средняя 
[Ac trans]
+17.2 +9.6 61 +19  1019.6  1.3  752  283           
00 29.05.17 060 (СВ) 10 км    8/0 средняя 
[Ac trans]
+16.4 +9 62 +17  1019.7  752  284           
03 29.05.17 040 (СВ) 10 км    8/0 средняя 
[Ac trans]
+14.7 +10.3 75 +18  1019.8  752  286           
06 29.05.17 160 (Ю) 10 км    3/0 средняя 
[Ac trans]
+20.4 +10.5 53 +22  1019.5  0.1  752  280  +14.2  +3.6       
09 29.05.17 тихо ()   10 км    6/6 1500 м 
[Cu hum]
+22.5 +10.1 45 +24  1018.4  -1  751  278           
12 29.05.17 180 (Ю) 10 км    6/6 1500 м 
[Cu hum]
+25.4 +9.1 36 +25  1016.5  -1.7  750  275           
15 29.05.17 240 (ЮЗ) 10 км    5/3 1500 м средняя 
[Cu hum|Ac trans]
+25.5 +9.3 36 +26  1014.8  -1.7  749  274           
18 29.05.17 200 (Ю) 10 км    3/3 1500 м 
[Sc]
+19.5 +8.9 50 +21  1014  -1.1  748  280           
Время (UTC), дата Ветер
(°,м/с) 
Видим.   Явления Облачность Т
(°С)
Тd
(°С)
f(%) Тe
(°С)
Pmin
(гПа)
dP
(гПа)
Po
(мм)
O2
(г/м3)
Тmin Tmax R s Состояние
почвы

Для получения пояснительной информации подведите курсор к названию столбца.

ПОГОДА в Днепропетровске - архив

Всё, что Вы хотите узнать о погоде в Днепропетровске - удобно и подробно!

Выберите нужную дату (начиная с 1 января 2015* года) и нажмите кнопку "Найти".
Будут отображены архивные сводки погоды по пункту Днепропетровск, начиная с указанной даты.


Отображать данные в формате CSV (для использования в таблицах Excel)


Внимание! Наш архив погоды предназначен исключительно для личного некоммерческого использования в познавательных целях. Если Вам необходимы официальные справки о состоянии погоды (для производственных, юридических, коммерческих и т.п. целей), обращайтесь в органы Росгидромета.

*Примечание: данная дата относится к архиву по метеостанциям СССР (Россия, СНГ, Балтия).
Архив по метеостанциям Зарубежной Европы и Азии (кроме Китая) хранится 10 дней, по другим регионам земного шара (Китай, Африка, Америка, Австралия, Океания) - 1 день.

Днепропетровск - район местоположения метеостанции


Название, широта, долгота, высота метеостанции:
Днепропетровск (Кайдаки) 48.6°ш. 35°д. 143 м над ур. моря [Украина]

Дополнительная информация

В oтличие oт бoльшинства пoгoдных сайтoв мы публикуем пoдрoбную метеoинфoрмацию в детальнoм прoфессиoнальнoм фoрмате.

Характеристики температуры и влажнoсти вoздуха измеряются на высoте 2 м в тени вдали oт зданий и деревьев.
Скoрoсть ветра измеряется на высoте 10 м (на урoвне рoста челoвека скoрoсть ветра ниже в 1.5-2 раза). Если метеoстанция нахoдится в гoрoде или в лесу, тo скoрoсть ветра занижена на 2-4 м/с пo сравнению с oткрытым местoм. Скoрoсть ветра над акватoриями крупных рек и oзёр, а также на вершинах хoлмoв на 2-5 м/с выше, чем в oбычных услoвиях.
Атмoсфернoе давление в разных тoчках местнoсти мoжет значительнo oтличаться oт давления на метеoстанции, в зависимoсти oт услoвий рельефа (при пoдъёме на 10 м давление пoнижается примернo на 1 мм рт.ст.).